Location: Unspecified
(0.0000°N, 0.0000°E)
Time: 06:50:59
(UTC+02:00)

Coronas F rocket - Visible Passes

Search period start: 28 July 2016 00:00
Search period end: 07 August 2016 00:00
Orbit: 317 x 327 km, 82.5° (Epoch: 27 July)

Date Brightness Start Highest point End Pass type
(mag) Time Alt. Az. Time Alt. Az. Time Alt. Az.
28 Jul 1.5 21:20:34 22° SSW 21:22:05 67° W 21:24:42 10° N visible
29 Jul 4.3 21:36:46 10° SW 21:38:37 17° W 21:40:28 10° NW visible
31 Jul 1.6 20:37:39 10° SSE 20:40:10 41° E 20:42:41 10° NNE visible
01 Aug 2.6 20:54:05 10° SSW 20:56:36 41° W 20:59:06 10° NNW visible
02 Aug 4.8 21:11:49 10° WSW 21:13:00 12° W 21:14:10 10° WNW visible
05 Aug 5.0 07:35:34 10° ENE 07:36:39 12° E 07:37:44 10° ESE visible
